Regional Weather Roundup
Issued by NWS State College, PA

Home | Current Version | Previous Version | Graphics & Text | Print | Product List | Glossary On
Versions: 1 2 3 4 5 6 7 8 9 10 11 12 13 14 15 16 17 18 19 20 21 22 23 24 25 26 27 28 29 30 31 32 33 34 35 36 37 38 39 40 41 42 43 44 45 46 47 48 49 50
648
ASUS41 KCTP 250803
RWRCTP

REGIONAL WEATHER ROUNDUP
NATIONAL WEATHER SERVICE STATE COLLEGE PA
400 AM EDT THU MAY 25 2017

Note: "fair" indicates few or no clouds below 12,000 feet with no
significant weather and/or obstructions to visibility.

* = STATION THAT DOES NOT REPORT PRECIPITATION /E.G. RAIN...SNOW...ETC/
    THUNDER OR FOG.

PAZ002>004-007>009-013>016-020>023-029>032-250900-
WESTERN PENNSYLVANIA

CITY           SKY/WX    TMP DP  RH WIND       PRES   REMARKS
ERIE           CLOUDY    61  53  75 SE18G29   29.49F
MEADVILLE      CLOUDY    58  54  86 SE9G21    29.52F
FRANKLIN*      CLOUDY    55  52  88 SE12      29.55S
NEW CASTLE     LGT RAIN  57  55  93 VRB6      29.51F
BEAVER COUNTY  NOT AVBL
BUTLER*        CLOUDY    55  54  94 E8        29.52F
PITTSBURGH INT LGT RAIN  57  56  96 SE10      29.49F
PITTSBURGH     RAIN      55  52  89 E10       29.49F FOG
INDIANA*       CLOUDY    55  55 100 E7G14     29.54F FOG
LATROBE        LGT RAIN  55  55 100 N3        29.52F
WASHINGTON CO* CLOUDY    55  54  94 E7        29.51S
$$

PAZ004>006-010>012-017>019-024>028-033>037-041-042-045-046-049>053-250900-
CENTRAL PENNSYLVANIA

CITY           SKY/WX    TMP DP  RH WIND       PRES   REMARKS
BRADFORD       LGT RAIN  52  51  97 SE13G20   29.59F
DUBOIS         LGT RAIN  53  50  89 E14G21    29.57S FOG
CLEARFIELD     RAIN      54  53  97 E9        29.60F
JOHNSTOWN      LGT RAIN  52  52 100 E7G18     29.52F
ALTOONA        RAIN      56  53  90 E12G21    29.56F
STATE COLLEGE  RAIN      54  51  90 E6        29.61F
WILLIAMSPORT   RAIN      57  52  83 SE15G23   29.65F
SELINSGROVE    CLOUDY    56  53  90 NE5       29.65F FOG
FT INDIANTOWN  LGT RAIN  55  55 100 E7        29.65F
CAPITAL CITY   LGT RAIN  57  53  86 E16       29.61F
HARRISBURG     RAIN      57  55  93 E12       29.61F FOG
YORK           LGT RAIN  56  55  97 E9        29.59F
$$

PAZ038>040-043-044-047-048-054-055-060>062-067>071-250900-
EASTERN PENNSYLVANIA

CITY           SKY/WX    TMP DP  RH WIND       PRES   REMARKS
SCRANTON       CLOUDY    58  49  72 VRB5      29.68F
MOUNT POCONO   LGT RAIN  50  49  96 E14G22    29.71F
ALLENTOWN      RAIN      57  52  83 E15       29.71F
QUAKERTOWN*    CLOUDY    55  55 100 E7        29.70
READING        LGT RAIN  56  56 100 E3        29.65F
LANCASTER      RAIN      57  56  96 E13       29.64F
COATESVILLE    LGT RAIN  55  54  94 E16G29    29.66F
POTTSTOWN      LGT RAIN  54  53  97 E5        29.68F
BLUE BELL      CLOUDY    54  54 100 E8        29.70F
DOYLESTOWN     LGT RAIN  54  32  43 VRB6      29.69F
WILLOW GROVE   NOT AVBL
NORTH PHILA    LGT RAIN  57  55  93 E16       29.70F
PHILADELPHIA   LGT RAIN  57  54  89 E13       29.68F
$$




USA.gov is the U.S. government's official web portal to all federal, state and local government web resources and services.